Change the Weather History Date:

Tuesday, November 13, 2012

  Actual Average Record
Temperature  
Mean Temperature 45 °F 59 °F  
Max Temperature 57 °F 72 °F 90 °F (1951)
Min Temperature 33 °F 46 °F 28 °F (2014)
Degree Days  
Heating Degree Days 20 7  
Month to date heating degree days 36 68  
Since 1 July heating degree days 106 119  
Cooling Degree Days 0 1  
Month to date cooling degree days 48 23  
Year to date cooling degree days 3115 2726  
Moisture  
Dew Point 28 °F    
Average Humidity 55    
Maximum Humidity 82    
Minimum Humidity 27    
Precipitation  
Precipitation 0.00 in 0.11 in 0.94 in (1961)
Month to date precipitation 0.00 1.42  
Year to date precipitation 34.30 31.38  
Snow  
Snow 0.00 in - - ()
Month to date snowfall 0.0  
Since 1 July snowfall 0.0  
Since 1 September snowfall 0.0  
Snow Depth 0.00 in    
Sea Level Pressure  
Sea Level Pressure 30.42 in    
Wind  
Wind Speed 5 mph (NE)    
Max Wind Speed 14 mph    
Max Gust Speed 18 mph    
Visibility 10 miles    
Events      
T = Trace of Precipitation, MM = Missing Value Source: NWS Daily Summary

Daily Weather History Graph

Daily Weather History Graph

Search for Another Location

Airport or City:

Trip Planner

Search our weather history database for the weather conditions in past years. The results will help you decide how hot, cold, wet, or windy it might be!

Date:

Astronomy

Nov. 13, 2012 Rise Set
Actual Time 6:54 AM CST 5:34 PM CST
Civil Twilight 6:29 AM CST 6:00 PM CST
Nautical Twilight 6:00 AM CST 6:29 PM CST
Astronomical Twilight 5:32 AM CST 6:57 PM CST
Moon 6:33 AM CST (11/13) 5:31 PM CST (11/13)
Length of Visible Light 11h 30m
Length of Day
10h 40m
Waning Crescent, 0% of the Moon is Illuminated
Nov 13
Waning Crescent
Nov 13
New
Nov 20
First Quarter
Nov 28
Full
Dec 6
Last Quarter

Hourly Weather History & Observations

Time (CST) Temp. Windchill Dew Point Humidity Pressure Visibility Wind Dir Wind Speed Gust Speed Precip Events Conditions
12:53 AM 39.9 °F 35.1 °F 26.1 °F 58% 30.50 in 10.0 mi North 6.9 mph - N/A   Partly Cloudy
1:53 AM 39.0 °F 34.8 °F 26.1 °F 60% 30.49 in 10.0 mi North 5.8 mph - N/A   Partly Cloudy
2:53 AM 37.0 °F 32.4 °F 26.1 °F 65% 30.47 in 10.0 mi North 5.8 mph - N/A   Clear
3:53 AM 36.0 °F 33.3 °F 27.0 °F 70% 30.46 in 10.0 mi North 3.5 mph - N/A   Clear
4:53 AM 34.0 °F 29.8 °F 28.0 °F 79% 30.47 in 10.0 mi NNE 4.6 mph - N/A   Partly Cloudy
5:53 AM 39.0 °F 35.7 °F 27.0 °F 62% 30.47 in 10.0 mi NE 4.6 mph - N/A   Partly Cloudy
6:53 AM 39.9 °F 35.8 °F 28.9 °F 65% 30.50 in 10.0 mi North 5.8 mph - N/A   Scattered Clouds
7:53 AM 42.1 °F 40.2 °F 30.9 °F 65% 30.51 in 10.0 mi North 3.5 mph - N/A   Mostly Cloudy
8:53 AM 48.0 °F - 28.9 °F 48% 30.52 in 10.0 mi NE 5.8 mph - N/A   Mostly Cloudy
9:53 AM 51.8 °F - 26.6 °F 38% 30.48 in 10.0 mi ENE 10.4 mph - N/A   Mostly Cloudy
10:53 AM 54.0 °F - 26.1 °F 34% 30.47 in 10.0 mi ENE 12.7 mph - N/A   Overcast
11:53 AM 55.0 °F - 25.0 °F 31% 30.45 in 10.0 mi ENE 11.5 mph - N/A   Mostly Cloudy
12:53 PM 55.9 °F - 26.1 °F 32% 30.40 in 10.0 mi NE 9.2 mph - N/A   Overcast
1:53 PM 55.9 °F - 26.1 °F 32% 30.38 in 10.0 mi East 5.8 mph - N/A   Overcast
2:53 PM 57.0 °F - 25.0 °F 29% 30.37 in 10.0 mi ENE 3.5 mph - N/A   Overcast
3:53 PM 55.9 °F - 24.1 °F 29% 30.35 in 10.0 mi NNE 8.1 mph - N/A   Overcast
4:53 PM 55.9 °F - 23.0 °F 28% 30.35 in 10.0 mi ENE 3.5 mph - N/A   Overcast
5:53 PM 55.0 °F - 28.0 °F 35% 30.35 in 10.0 mi Calm Calm - N/A   Overcast
6:53 PM 53.1 °F - 33.1 °F 47% 30.36 in 10.0 mi Calm Calm - N/A   Overcast
7:53 PM 55.0 °F - 27.0 °F 34% 30.34 in 10.0 mi SSE 4.6 mph - N/A   Overcast
8:53 PM 52.0 °F - 30.9 °F 45% 30.37 in 10.0 mi Calm Calm - N/A   Overcast
9:53 PM 52.0 °F - 36.0 °F 54% 30.38 in 10.0 mi Calm Calm - N/A   Overcast
10:53 PM 54.0 °F - 30.9 °F 41% 30.37 in 10.0 mi Calm Calm - N/A   Overcast
11:53 PM 54.0 °F - 32.0 °F 43% 30.36 in 10.0 mi ENE 5.8 mph - N/A   Overcast